Probability
0 0 0 0 0 0 0 0 0 0 0 0 0 0 0 0 0 0 0 0 0 0 0 0 0 0 0 0 0 0 0 0 0 0 0 0 0 0 0 0 0 0 0
0 0 0 0 0 0 0 0 0 0 0 0 0 0 0 0 0 0 0 0 0 0 0 0 0 0 0 0 0 0 0 0 0 0 0 0 0 0 0 0 0 0 0
0 0 0 0 0 0 0 0 0 0 0 0 0 0 0 0 0 0 0 0 0 0 0 0 0 0 0 0 0 0 0 0 0 0 0 0 0 0 0 0 0 0 0
0 0 0 0 0 0 0 0 0 0 0 0 0 0 0 0 0 0 0 0 0 0 0 0 0 0 0 0 0 0 0 0 0 0 0 0 0 0 0 0 0 0 0
0 0 0 0 0 0 0 0 0 0 0 0 0 0 0 0 0 0 0 0 0 0 0 0 0 0 0 0 0 0 0 0 0 0 0 0 0 0 0 0 0 0 0
0 0 0 0 0 0 0 0 0 0 0 0 0 0 0 0 0 0 0 0 0 0 0 0 0 0 0 0 0 0 0 0 0 0 0 0 0 0 0 0 0 0 0
0 0 0 0 0 0 0 0 0 0 0 0 0 0 0 0 0 0 0 0 0 0 0 0 0 0 0 0 0 0 0 0 0 0 0 0 0 0 0 0 0 0 0
0 0 0 0 0 0 0 0 0 0 0 0 0 0 0 0 0 0 0 0 0 0 0 0 0 0 0 0 0 0 0 0 0 0 0 0 0 0 0 0 0 0 0
0 0 0 0 0 0 0 0 0 0 0 0 0 0 0 0 0 0 0 0 0 0 0 0 0 0 0 0 0 0 0 0 0 0 0 0 0 0 0 0 0 0 0
0 0 0 0 0 0 0 0 0 0 0 0 0 0 0 0 0 0 0 0 0 0 0 0 0 0 0 0 0 0 0 0 0 0 0 0 0 0 0 0 0 0 0
0 0 0 0 0 0 0 0 0 0 0 0 0 0 0 0 0 0 0 0 0 0 0 0 0 0 0 0 0 0 0 0 0 0 0 0 0 0 0 0 0 0 0
0 0 0 0 0 0 0 0 0 0 0 0 0 0 0 0 0 0 0 0 0 0 0 0 0 0 0 0 0 0 0 0 0 0 0 0 0 0 0 0 0 0 0
0 0 0 0 0 0 0 0 0 0 0 0 0 0 0 0 0 0 0 0 0 0 0 0 0 0 0 0 0 0 0 0 0 0 0 0 0 0 0 0 0 0 0
0 0 0 0 0 0 0 0 0 0 0 0 0 0 0 0 0 0 0 0 0 0 0 0 0 0 0 0 0 0 0 0 0 0 0 0 0 0 0 0 0 0 0
0 0 0 0 0 0 0 0 0 0 0 0 0 0 0 0 0 0 0 0 0 0 0 0 0 0 0 0 0 0 0 0 0 0 0 0 0 0 0 0 0 0 0
0 0 0 0 0 0 0 0 0 0 0 0 0 0 0 0 0 0 0 0 0 0 0 0 0 0 0 0 0 0 0 0 0 0 0 0 0 0 0 0 0 0 0
0 0 0 0 0 0 0 0 0 0 0 0 0 0 0 0 0 0 0 0 0 0 0 0 0 0 0 0 0 0 0 0 0 0 0 0 0 0 0 0 0 0 0
0 0 0 0 0 0 0 0 0 0 0 0 0 0 0 0 0 0 0 0 0 0 0 0 0 0 0 0 0 0 0 0 0 0 0 0 0 0 0 0 0 0 0
0 0 0 0 0 0 0 0 0 0 0 0 0 0 0 0 0 0 0 0 0 0 0 0 0 0 0 0 0 0 0 0 0 0 0 0 0 0 0 0 0 0 0
0 0 0 0 0 0 0 0 0 0 0 0 0 0 0 0 0 0 0 0 0 0 0 0 0 0 0 0 0 0 0 0 0 0 0 0 0 0 0 0 0 0 0
0 0 0 0 0 0 0 0 0 0 0 0 0 0 0 0 0 0 0 0 0 0 0 0 0 0 0 0 0 0 0 0 0 0 0 0 0 0 0 0 0 0 0
0 0 0 0 0 0 0 0 0 0 0 0 0 0 0 0 0 0 0 0 0 0 0 0 0 0 0 0 0 0 0 0 0 0 0 0 0 0 0 0 0 0 0
0 0 0 0 0 0 0 0 0 0 0 0 0 0 0 0 0 0 0 0 0 0 0 0 0 0 0 0 0 0 0 0 0 0 0 0 0 0 0 0 0 0 0
0 0 0 0 0 0 0 0 0 0 0 0 0 0 0 0 0 0 0 0 0 0 0 0 0 0 0 0 0 0 0 0 0 0 0 0 0 0 0 0 0 0 0
0 0 0 0 0 0 0 0 0 0 0 0 0 0 0 0 0 0 0 0 0 0 0 0 0 0 0 0 0 0 0 0 0 0 0 0 0 0 0 0 0 0 0
0 0 0 0 0 0 0 0 0 0 0 0 0 0 0 0 0 0 0 0 0 0 0 0 0 0 0 0 0 0 0 0 0 0 0 0 0 0 0 0 0 0 0
Wind_Speed
0 0 1 1 1 1 1 2 2 2 3 3 3 4 4 4 4 4 4 4 4 5 5 5 6 5 5 4 4 4 5 5 9 7 5 6 6 7 7 6 6 6 6
0 0 1 1 1 1 1 2 2 2 3 3 3 4 4 4 4 4 5 5 5 5 5 5 6 5 6 5 5 5 5 6 7 10 7 6 7 7 7 7 7 6 6
0 1 1 1 1 1 1 2 2 2 2 3 3 3 4 4 4 4 5 5 5 6 6 6 6 6 7 6 6 6 6 6 6 7 8 6 6 6 7 7 7 6 7
0 0 1 1 1 1 1 1 2 2 2 3 3 3 4 4 5 5 5 5 6 6 6 6 6 6 7 7 6 6 6 7 6 7 7 7 6 6 5 6 7 5 6
0 1 1 1 1 1 1 2 2 2 3 3 3 4 4 4 4 5 5 6 6 7 7 7 7 7 9 9 7 6 6 6 6 7 7 7 6 6 6 6 7 7 6
1 2 1 1 1 1 2 2 2 3 3 3 3 4 5 5 8 10 8 6 7 7 8 7 7 7 8 12 13 12 11 9 8 8 8 9 9 7 7 7 7 8 8
2 2 1 1 2 2 2 2 3 3 3 4 4 4 5 7 11 11 11 8 7 7 8 8 7 7 8 8 10 13 12 13 13 10 10 10 10 8 8 9 8 9 10
1 2 2 1 2 2 2 3 3 3 3 4 5 5 5 7 11 12 12 8 6 7 7 7 8 8 8 9 9 10 9 9 10 8 8 10 9 8 8 9 10 10 10
2 2 2 2 2 3 3 4 4 4 4 4 5 5 5 7 11 12 12 6 6 7 7 7 8 8 12 14 11 10 11 10 11 13 14 14 15 15 12 7 7 8 9
3 3 2 2 2 3 4 4 4 4 5 5 6 5 6 6 10 12 12 5 7 7 7 7 8 9 14 15 11 10 12 10 9 9 10 11 10 10 12 8 7 8 8
3 2 2 2 3 4 4 4 4 4 5 5 6 5 5 6 9 12 12 6 7 8 7 7 7 14 16 16 15 10 13 12 9 8 7 7 6 5 5 5 5 6 8
1 1 2 3 3 3 3 4 4 4 5 5 5 6 5 5 6 10 13 12 11 8 8 7 8 16 17 17 13 13 16 13 7 6 6 6 6 5 5 5 6 6 7
1 2 3 3 3 3 4 4 4 3 4 5 5 5 5 4 6 10 12 13 14 9 8 13 16 18 16 12 13 15 11 7 6 6 7 6 5 5 5 5 6 6 7
3 3 3 3 3 3 3 3 3 4 4 5 5 5 5 5 5 5 6 7 9 9 8 10 15 15 13 11 9 8 6 6 6 6 6 5 5 4 5 5 5 5 6
3 3 3 3 3 3 4 4 4 4 5 5 5 5 6 6 8 13 10 7 7 7 9 6 5 6 6 6 5 5 5 5 6 5 5 5 5 5 5 5 5 5 5
3 3 3 3 3 3 3 4 7 8 10 11 11 9 8 11 15 15 15 16 16 15 9 5 6 6 6 7 6 6 5 5 5 5 5 5 5 5 6 5 5 5 5
4 4 3 3 3 3 3 4 5 6 9 10 11 12 12 14 15 15 15 15 14 12 5 5 6 6 6 6 6 6 6 5 5 5 5 5 5 5 5 5 5 5 5
4 4 4 3 3 3 3 4 4 4 5 5 7 11 13 14 14 14 14 10 6 5 4 5 6 6 6 6 6 6 5 5 5 5 5 4 4 5 5 5 5 5 5
4 3 3 3 3 3 3 3 4 4 5 5 5 6 9 12 13 12 10 4 5 5 5 5 5 6 6 5 5 5 5 5 5 4 4 4 4 4 5 5 5 6 5
4 5 4 3 3 3 3 4 4 4 5 5 5 5 4 5 4 5 4 4 4 5 5 5 5 5 5 5 5 5 5 5 5 4 4 4 4 4 5 5 5 5 5
3 3 4 3 4 4 4 4 4 4 5 5 5 6 9 5 5 5 5 5 5 5 5 5 5 5 5 5 5 5 6 5 5 4 5 4 4 4 4 5 5 5 5
3 3 3 4 4 4 4 4 4 5 5 6 5 6 10 5 4 5 5 5 5 5 5 5 5 5 5 5 5 5 5 5 5 5 5 5 4 4 4 4 5 4 4
3 4 4 4 4 4 4 4 4 5 5 5 5 5 5 5 5 5 6 5 5 5 5 4 5 5 5 4 4 5 5 6 5 5 5 5 5 4 4 5 5 5 5
4 4 4 4 4 4 4 4 5 5 5 5 5 5 5 5 5 6 6 5 5 5 5 4 5 7 8 7 5 4 5 5 5 5 6 6 6 5 4 5 5 5 5
4 4 4 4 4 4 4 5 5 5 5 5 5 5 5 5 5 6 5 5 5 6 6 6 5 6 8 8 7 6 8 9 8 6 5 5 6 6 5 5 5 5 5
4 4 4 4 4 4 4 5 5 5 5 5 5 5 5 5 5 5 5 5 5 6 6 6 7 8 8 7 8 9 9 9 9 8 6 5 5 5 5 4 5 5 5
Wind_Direction
116 282 314 314 347 7 349 339 339 343 344 346 343 337 335 334 330 323 314 312 309 309 310 307 305 307 305 302 298 293 288 285 284 292 297 301 299 297 300 292 284 275 275
269 239 262 298 324 330 316 322 337 338 339 340 338 334 330 330 329 322 315 316 309 305 306 306 305 307 305 302 298 294 291 287 285 291 297 300 297 297 297 299 299 295 286
357 336 310 298 290 283 303 329 335 332 334 334 331 324 320 320 319 315 312 311 307 302 303 301 302 303 301 299 296 294 293 294 290 289 293 298 299 303 303 301 297 294 292
194 255 272 280 283 288 306 317 319 321 319 316 312 307 306 307 306 306 308 307 304 301 300 297 296 294 293 296 294 292 295 295 294 291 290 295 295 298 299 302 301 298 295
211 241 259 281 306 308 308 302 302 300 296 297 299 300 301 299 299 303 302 300 299 300 299 298 296 292 289 289 288 289 290 288 290 289 290 294 294 301 299 302 299 303 292
212 240 258 257 274 280 286 299 305 299 296 296 293 294 296 297 303 304 304 300 298 298 298 298 296 294 295 295 292 289 285 282 283 283 284 285 290 294 298 298 300 301 294
221 245 257 256 268 278 292 297 292 292 298 295 293 292 291 295 302 306 307 303 299 297 296 296 297 299 300 298 298 298 293 288 283 281 281 282 287 290 292 291 289 289 287
230 260 268 262 274 287 292 288 289 292 290 288 292 293 295 300 306 309 310 306 300 298 298 298 298 301 302 303 301 297 294 292 289 286 281 284 286 286 282 284 287 288 287
235 254 258 254 268 277 280 283 287 292 290 290 295 295 293 298 306 309 310 307 301 300 300 300 298 297 301 303 300 295 294 291 293 289 287 288 290 290 289 286 281 282 284
240 251 257 257 263 269 274 281 284 283 283 290 291 291 290 295 304 309 312 305 302 302 300 297 294 297 302 303 299 294 292 292 294 293 291 292 293 292 293 284 279 279 282
243 251 262 265 267 270 277 282 286 286 291 290 291 293 291 292 300 307 310 308 303 302 301 301 300 303 303 304 301 295 291 297 296 291 290 290 292 291 291 287 281 276 276
237 251 264 271 273 278 279 284 288 288 288 289 291 293 291 294 297 304 307 305 304 299 297 299 300 302 302 301 300 297 298 299 295 291 287 287 289 292 294 293 291 290 284
233 252 263 271 273 276 272 277 283 279 277 282 286 289 295 299 302 305 305 304 304 300 296 298 302 302 302 300 299 300 302 295 290 286 285 286 288 292 299 301 301 297 295
235 253 261 266 275 277 274 269 268 269 271 276 282 287 293 296 297 300 300 301 300 298 296 296 299 298 298 299 300 300 296 292 288 285 290 293 294 293 290 292 294 297 297
239 251 261 262 267 268 264 261 267 261 265 276 276 281 288 291 292 302 306 302 301 296 306 301 295 297 296 296 297 295 295 293 286 285 286 289 290 290 290 291 288 290 288
238 246 250 257 261 263 271 284 279 278 285 286 287 289 287 289 300 303 305 306 307 307 307 295 293 292 291 292 291 292 293 292 293 292 288 285 287 288 289 288 286 283 286
229 242 248 253 256 263 269 274 288 294 289 291 294 297 299 304 307 308 308 309 310 313 298 287 287 288 290 291 290 288 289 290 292 286 283 284 284 286 287 287 286 286 287
228 238 241 246 251 255 259 264 270 280 294 293 296 299 305 310 311 312 313 318 311 310 287 285 286 287 287 290 290 288 287 288 286 283 281 281 282 285 286 286 286 285 288
223 231 235 243 248 252 257 261 262 267 273 284 296 301 305 308 310 312 320 309 292 290 288 285 285 288 287 286 289 288 284 282 282 283 281 281 280 280 282 283 285 284 283
225 233 234 238 244 247 249 253 258 262 269 274 280 288 300 302 299 302 300 286 283 284 285 289 293 293 293 290 289 290 289 287 284 281 281 281 280 276 277 280 279 280 280
223 226 226 235 238 240 243 246 251 257 262 268 272 280 293 292 286 287 288 285 283 287 289 289 289 289 287 287 289 290 287 285 284 284 284 283 281 279 278 278 278 279 281
217 222 225 232 239 242 244 246 249 253 259 266 276 285 292 290 279 279 278 278 278 278 280 282 284 283 282 283 285 285 287 289 287 283 283 285 281 277 279 280 280 281 279
216 224 232 237 240 246 250 248 249 252 257 262 270 276 276 272 273 274 277 280 283 285 285 283 284 287 289 287 283 280 281 283 285 286 283 282 281 279 277 276 274 278 279
220 225 231 238 239 241 247 251 253 256 258 263 265 267 270 271 274 277 279 283 285 287 286 284 282 285 289 292 291 285 281 283 283 278 272 271 273 274 274 274 273 270 274
219 225 232 236 238 243 249 253 255 257 258 261 265 268 271 272 275 277 280 282 286 287 288 288 286 287 288 288 289 289 289 291 289 279 269 266 266 265 264 267 269 273 273
219 225 232 236 239 241 245 251 255 258 259 262 264 266 269 272 275 278 280 282 285 287 288 288 287 288 291 291 290 291 291 290 289 282 270 263 263 265 264 266 267 270 273